Hourly Data Report for August 06, 2018

CLYDE RIVER A
NUNAVUT
Current Station Operator: NAVCAN

70°29'09.000" N
68°31'01.000" W
26.50 m
2400804
71090
YCY

Download Data

Hourly Data (August 2018)
Hourly Data Report for August 6, 2018
TIME
LST
Temp Definition
°C
Dew Point Definition
°C
Rel Hum Definition
%
Precip. Amount Definition
mm

Wind Dir Definition
10's deg

Wind Spd Definition
km/h
Visibility Definition
km
Stn Press Definition
kPa
Hmdx Definition


Wind Chill Definition


Weather Definition


00:00 1.8 1.8 100 0.0 12 11 16.1 99.24     LegendNANA
01:00 3.7 3.1 96 0.0 20 8 16.1 99.28     LegendNANA
02:00 4.2 1.6 83 0.0 16 8 16.1 99.30     LegendNANA
03:00 4.8 2.0 82 0.0 18 11 16.1 99.31     LegendNANA
04:00 7.4 2.0 69 0.0 21 18 16.1 99.38     LegendNANA
05:00 7.6 1.7 66 0.0 19 30 16.1 99.40     LegendNANA
06:00 7.6 2.6 70 0.0 18 28 16.1 99.42     LegendNANA
07:00 8.2 2.9 69 0.0 18 15 16.1 99.50     LegendNANA
08:00 8.9 2.5 64 0.0 17 30 16.1 99.53     LegendNANA
09:00 9.8 2.7 61 0.0 17 37 16.1 99.56     LegendNANA
10:00 10.1 2.7 60 0.0 21 21 16.1 99.62     LegendNANA
11:00 10.2 2.8 60 0.0 20 26 16.1 99.65     LegendNANA
12:00 10.7 2.9 59 0.0 19 34 16.1 99.65     LegendNANA
13:00 10.5 3.0 60 0.0 21 35 16.1 99.72     LegendNANA
14:00 10.8 3.5 61 0.0 22 34 16.1 99.74     LegendNANA
15:00 10.6 2.8 58 0.0 21 39 16.1 99.77     LegendNANA
16:00 10.2 3.0 61 0.0 21 26 16.1 99.81     LegendNANA
17:00 10.1 3.2 62 0.0 23 35 16.1 99.83     LegendNANA
18:00 9.1 3.2 66 0.0 22 39 16.1 99.86     LegendNANA
19:00 9.3 2.2 61 0.0 21 43 16.1 99.87     LegendNANA
20:00 8.4 2.4 66 0.0 21 30 16.1 99.87     LegendNANA
21:00 7.4 2.6 72 0.0 22 28 16.1 99.87     LegendNANA
22:00 6.3 2.0 74 0.0 21 15 16.1 99.89     LegendNANA
23:00 4.6 1.4 80 0.0 25 8 16.1 99.89     LegendNANA

Notes on Data Quality.

Legend

  • E = Estimated
  • M = Missing
  • NA = Not Available*
  • [empty] = Indicates an unobserved value
Date modified: